Location: Spor
(46.2167°N, 11.0500°E)
Time: 23:33:42
(UTC+00:00)

Cosmos 773 Rocket - Pass Details

Date: 07 June 2020
Orbit: 745 x 777 km, 74.1° (Epoch: 05 July)

Event Time Altitude Azimuth Distance (km) Brightness Sun altitude
Exits shadow 02:11:02 11° 198° (SSW) 2,233 5.8 -10.3°
Maximum altitude 02:16:05 86° 112° (ESE) 781 4.1 -9.7°
Drops below altitude 10° 02:21:24 10° 23° (NNE) 2,334 7.8 -9.1°
Sets 02:23:48 0° 23° (NNE) 3,267 8.8 -8.8°
